W4WWT Weather Reports


time (UTC)temp
F
wind
direction
speed
knots
gust
knots
rain 1hr
in
rain 24hr
in
rain mn
in
humidity
%
barometer
mb
20260504081002 40 74 0.0 0.0 0.00 0.00 0.00 94 1024.4
20260504050002 45 91 0.0 0.0 0.00 0.00 0.00 85 1025.1
20260504044502 46 6 0.0 0.0 0.00 0.00 0.00 84 1024.7
20260504043002 47 72 0.0 0.0 0.00 0.00 0.00 83 1024.7
20260504041502 47 138 0.0 0.0 0.00 0.00 0.00 81 1024.7
20260504040016 48 139 0.0 0.0 0.00 0.00 0.00 80 1024.7
20260504035504 48 138 0.0 0.0 0.00 0.00 0.00 79 1024.7
20260504034002 49 82 0.0 0.0 0.00 0.00 0.00 78 1025.1
20260504032502 49 73 0.0 0.0 0.00 0.00 0.00 76 1025.1
20260504031003 50 62 0.0 0.0 0.00 0.00 0.00 73 1025.1
20260504025503 51 286 0.0 0.0 0.00 0.00 0.00 72 1024.7
20260504024002 52 81 0.0 0.0 0.00 0.00 0.00 70 1024.7
20260504021002 54 97 0.0 0.0 0.00 0.00 0.00 63 1024.4
20260504015502 55 67 0.0 0.0 0.00 0.00 0.00 61 1024.0
20260504014004 56 66 0.0 0.0 0.00 0.00 0.00 60 1024.0
20260504011007 59 244 0.0 0.0 0.00 0.00 0.00 49 1023.7
20260504004502 59 119 0.0 0.9 0.00 0.00 0.00 47 1023.4
20260504003003 60 93 0.0 0.0 0.00 0.00 0.00 49 1023.4
20260504002002 61 121 0.9 0.9 0.00 0.00 0.00 46 1023.4
20260504000502 62 87 0.0 0.0 0.00 0.00 0.00 44 1023.0
20260503235002 63 58 0.0 0.0 0.00 0.00 0.00 44 1023.0
20260503233504 64 91 0.0 0.0 0.00 0.00 0.00 43 1022.7
20260503232502 65 90 0.0 0.9 0.00 0.00 0.00 43 1023.0
20260503231003 65 129 0.0 3.5 0.00 0.00 0.00 39 1023.0
20260503225502 66 149 0.9 1.7 0.00 0.00 0.00 41 1023.0
20260503224002 67 59 0.0 1.7 0.00 0.00 0.00 40 1023.0
20260503222502 67 92 0.0 5.2 0.00 0.00 0.00 39 1023.0
20260503221501 67 156 0.0 2.6 0.00 0.00 0.00 36 1023.0
20260503214503 68 21 0.0 1.7 0.00 0.00 0.00 37 1023.0
20260503213002 68 94 2.6 4.3 0.00 0.00 0.00 35 1023.4
20260503211502 68 218 0.0 0.9 0.00 0.00 0.00 36 1023.4
20260503210004 69 92 1.7 4.3 0.00 0.00 0.00 36 1023.4
20260503205002 70 79 0.0 2.6 0.00 0.00 0.00 34 1023.7
20260503203502 70 247 0.0 2.6 0.00 0.00 0.00 36 1023.7
20260503202002 70 264 0.9 4.3 0.00 0.00 0.00 33 1024.0
20260503201001 71 216 1.7 6.1 0.00 0.00 0.00 31 1024.4
20260503195503 71 30 0.0 4.3 0.00 0.00 0.00 31 1024.7
20260503192502 71 96 1.7 1.7 0.00 0.00 0.00 31 1025.1
20260503191003 71 94 0.9 3.5 0.00 0.00 0.00 31 1025.4
20260503190002 72 235 0.0 1.7 0.00 0.00 0.00 29 1025.4
20260503184502 71 109 0.0 1.7 0.00 0.00 0.00 30 1025.7
20260503180003 70 75 0.0 2.6 0.00 0.00 0.00 32 1026.1
20260503174502 70 292 0.9 1.7 0.00 0.00 0.00 31 1026.1
20260503173002 70 242 0.0 3.5 0.00 0.00 0.00 31 1026.4
20260503172001 69 248 0.9 3.5 0.00 0.00 0.00 33 1026.4
20260503150502 62 12 1.7 3.5 0.00 0.00 0.00 41 1027.4
20260503130503 46 353 0.0 0.0 0.00 0.00 0.00 88 1027.1